Weather History for Joplin, MO

Change the Weather History Date:

Thursday, January 3, 2013

  Actual Average Record
Temperature  
Mean Temperature 29 °F 35 °F  
Max Temperature 41 °F 44 °F 74 °F (2009)
Min Temperature 17 °F 25 °F 0 °F (1959)
Degree Days  
Heating Degree Days 36 30  
Month to date heating degree days 116 90  
Since 1 July heating degree days 1613 1707  
Cooling Degree Days 0 0  
Month to date cooling degree days 0 0  
Year to date cooling degree days 0 0  
Moisture  
Dew Point 23 °F    
Average Humidity 73    
Maximum Humidity 100    
Minimum Humidity 46    
Precipitation  
Precipitation 0.00 in 0.07 in 1.52 in (1950)
Month to date precipitation T 0.22  
Year to date precipitation T 0.22  
Sea Level Pressure  
Sea Level Pressure 30.41 in    
Wind  
Wind Speed 4 mph (West)    
Max Wind Speed 12 mph    
Max Gust Speed -    
Visibility 8 miles    
Events      
T = Trace of Precipitation, MM = Missing Value Source: NWS Daily Summary

Daily Weather History Graph

Daily Weather History Graph

Search for Another Location

Airport:

Trip Planner

Search our weather history database for the weather conditions in past years. The results will help you decide how hot, cold, wet, or windy it might be!

Date:

Astronomy

Jan. 03, 2013 Rise Set
Actual Time 7:32 AM CST 5:13 PM CST
Civil Twilight 7:03 AM CST 5:42 PM CST
Nautical Twilight 6:30 AM CST 6:14 PM CST
Astronomical Twilight 5:59 AM CST 6:46 PM CST
Moon 11:40 PM CST (1/3) 10:53 AM CST (1/3)
Length of Visible Light 10h 39m
Length of Day
9h 41m
Waning Gibbous, 65% of the Moon is Illuminated
Jan 3
Waning Gibbous
Jan 4
Last Quarter
Jan 11
New
Jan 18
First Quarter
Jan 26
Full

Hourly Weather History & Observations

Time (CST) Temp. Windchill Dew Point Humidity Pressure Visibility Wind Dir Wind Speed Gust Speed Precip Events Conditions
12:53 AM 23.0 °F 17.0 °F 19.4 °F 86% 30.27 in 7.0 mi WNW 4.6 mph - N/A   Clear
1:53 AM 21.0 °F - 18.0 °F 88% 30.30 in 7.0 mi Calm Calm - N/A   Clear
2:53 AM 18.0 °F 9.8 °F 17.1 °F 96% 30.33 in 6.0 mi South 5.8 mph - N/A   Clear
3:53 AM 23.0 °F 15.8 °F 21.0 °F 92% 30.34 in 6.0 mi SSW 5.8 mph - N/A   Overcast
4:53 AM 21.9 °F 15.7 °F 19.9 °F 92% 30.36 in 7.0 mi WSW 4.6 mph - N/A   Scattered Clouds
5:53 AM 24.1 °F - 21.9 °F 91% 30.38 in 7.0 mi Calm Calm - N/A   Mostly Cloudy
6:53 AM 21.0 °F 14.6 °F 19.0 °F 92% 30.40 in 6.0 mi SSW 4.6 mph - N/A   Partly Cloudy
7:53 AM 23.0 °F 15.8 °F 21.0 °F 92% 30.42 in 5.0 mi SW 5.8 mph - N/A   Mostly Cloudy
8:53 AM 25.0 °F 20.7 °F 24.1 °F 96% 30.43 in 5.0 mi SW 3.5 mph - N/A   Clear
9:53 AM 30.0 °F - 27.0 °F 88% 30.45 in 8.0 mi Calm Calm - N/A   Clear
10:53 AM 34.0 °F 28.8 °F 28.0 °F 79% 30.46 in 8.0 mi Variable 5.8 mph - N/A   Clear
11:53 AM 37.9 °F 33.5 °F 27.0 °F 65% 30.44 in 10.0 mi WNW 5.8 mph - N/A   Clear
12:53 PM 39.0 °F 35.7 °F 24.1 °F 55% 30.41 in 10.0 mi Variable 4.6 mph - N/A   Clear
1:53 PM 41.0 °F 38.0 °F 24.1 °F 51% 30.40 in 10.0 mi Variable 4.6 mph - N/A   Clear
2:53 PM 41.0 °F 36.4 °F 23.0 °F 49% 30.40 in 10.0 mi NW 6.9 mph - N/A   Partly Cloudy
3:53 PM 39.0 °F 33.4 °F 24.1 °F 55% 30.40 in 10.0 mi WSW 8.1 mph - N/A   Mostly Cloudy
4:53 PM 37.9 °F 34.4 °F 23.0 °F 55% 30.41 in 10.0 mi West 4.6 mph - N/A   Overcast
5:53 PM 37.0 °F 31.0 °F 25.0 °F 62% 30.43 in 10.0 mi NW 8.1 mph - N/A   Overcast
6:53 PM 34.0 °F 26.6 °F 26.1 °F 73% 30.45 in 10.0 mi NNW 9.2 mph - N/A   Overcast
7:53 PM 33.1 °F 27.7 °F 26.1 °F 75% 30.45 in 10.0 mi NW 5.8 mph - N/A   Overcast
8:53 PM 32.0 °F 27.5 °F 26.1 °F 79% 30.45 in 10.0 mi NW 4.6 mph - N/A   Overcast
9:53 PM 30.9 °F 25.2 °F 25.0 °F 79% 30.45 in 10.0 mi NW 5.8 mph - N/A   Overcast
10:53 PM 28.9 °F - 24.1 °F 82% 30.46 in 10.0 mi Calm Calm - N/A   Clear
11:53 PM 26.1 °F 21.9 °F 23.0 °F 88% 30.46 in 10.0 mi West 3.5 mph - N/A   Clear